Starlink 34156

operational
NORAD ID: 64108 Int'l Des: 2025-110 Owner: SPXS Country: US Constellation: starlink
LEOCIRCULAR

Über Starlink 34156

Beschreibung wird geladen...

Live-Position

3D-Globus wird geladen...

Nächste Überflüge

Höhenverlauf

Altitude vs Time

uPlot chart will show altitude changes over time

Zweizeiliger Elementsatz

1 64108U 25110N 25353.16014389 .00027440 00000-0 93449-3 0 9997
2 64108 53.1596 40.7762 0001800 110.5473 249.5722 15.30222821 33559
Epoch: 19. Dez. 2025 • Age: 16 hours

Aktueller Status

Höhe 478.0 km
Geschwindigkeit 7.63 km/s
Subsatellitenpunkt 42.65°N, 144.86°E
Startdatum 23. Mai 2025
Alter 0.5 years
Typ internet

Technische Details

Klassifizierung Payload
Masse 575.00 kg
Trockenmasse 530.00 kg
Gesamtmasse 575.00 kg
Länge 0.30 m
Durchmesser 4.10 m
Spannweite 29.00 m
Form Box + pan
Hersteller SPXS
Bus-Typ Starlink V2MO
Phasenstatus In Orbit
Besitzer/Staat SPXS/US

Große Konstellationen

Loading constellations...